COSMOS 2216

Satellite information

Favourite Embed

Satellite Type and Status

PAYLOADIN ORBIT

Key statistics

Satellite COSMOS 2216 at a glance.

Uptime

11891

Days in orbit

Revolutions

≈ 12.6

Per day

Orbit

LEO

Low Earth Orbit

Inclination

82.6

Latest

Satellite identification and parameters

Extended collection of information and parameters for COSMOS 2216.

Object identification

Identified? True

Debris? False

Object name: COSMOS 2216

International designator: 1992-068F

Object number (NORAD): 22187

Object ID (CCSDS): 22187

Country: COMMONWEALTH OF INDEPENDENT STATES (CIS)

Current information (Y/N): Y

RCS size: MEDIUM

Orbital parameters

Period: 114.053 minutes

Inclination: 82.5966 deg

SMA: 7790.48 km

Apoapsis: 1415.857 km

Periapsis: 1408.833 km

RAAN: 240.1492 deg

Eccentricy: 0.0004508

Argument of periapsis: 340.0578 deg

Mean anomaly: 20.0336 deg

Mean motion: 12.62572875 rev/day

Mean motion (dot): 0.00000019 rev/day2

B* drag term: 0.000046882 1/REarth

Two-line elements (TLE)

Creation date: May 11, 2025, 2:40 a.m.

Reference frame: TEME

Reference center: EARTH

Epoch: May 10, 2025, 5:06 p.m. UTC

TLE line 0: 0 COSMOS 2216

TLE line 1: 1 22187U 92068F 25130.71259357 .00000019 00000-0 46882-4 0 9997

TLE line 2: 2 22187 82.5966 240.1492 0004508 340.0578 20.0336 12.62572875500109

Live tracking on map

Real-time ground track for satellite COSMOS 2216.

In-orbit conjunctions

A list of the most updated potential collisions computed for object COSMOS 2216.

Target Orbit TCA Probability of collision Miss distance Type
COSMOS 2248 LEO 2025-04-11 15:35:39 0.02820735 75.0 (m) PAYLOAD

Associated space launch

Second generation store-dump military communications satellite

COSMOS 2216 was lifted into orbit during the mission ‘Tsiklon-3 | Strela-3 83 to 88’, on board a Tsiklon-3 space rocket.

The launch took place on Oct. 20, 1992, 12:58 p.m. from 32/1.

For more information about the launch, click the button.

Launch to space Tsiklon-3 | Strela-3 83 to 88
Tsiklon-3 | Strela-3 83 to 88

Agency: N/A

Status: Launch Successful

Launch date: Oct. 20, 1992, 12:58 p.m. UTC

Rocket: Tsiklon-3

Launch pad: 32/1

Location: Plesetsk Cosmodrome, Russian Federation

...

Latest news about this satellite

There are no fresh news available about this satellite. Check back as we update our databases every day.


Newsletter sign-up

Weekly statistics, charts and insights to help you stay on top of the space industry.